Regional Weather Roundup
Issued by NWS

Home | Current Version | Previous Version | Graphics & Text | Print | Product List | Glossary On
Versions: 1 2 3 4 5 6 7 8 9 10 11 12 13 14 15 16 17 18 19 20 21 22 23 24 25 26 27 28 29 30 31 32 33 34 35 36 37 38 39 40 41 42 43 44 45 46 47 48 49 50
000
ASUS43 KMPX 152001
RWRMN
WEATHER ROUNDUP FOR MINNESOTA
NATIONAL WEATHER SERVICE TWIN CITIES/CHANHASSEN MN
200 PM CST SUN JAN 15 2017


NOTE: "FAIR" INDICATES FEW OR NO CLOUDS BELOW 12,000 FEET WITH NO
SIGNIFICANT WEATHER AND/OR OBSTRUCTIONS TO VISIBILITY. N/A MEANS
CURRENT SKY AND/OR WEATHER CONDITIONS ARE NOT AVAILABLE.

MNZ060>063-068>070-152100-
   Twin Cities Metro

CITY           SKY/WX    TMP DP  RH WIND       PRES   REMARKS
TWIN CITIES    MOSUNNY   32  19  58 VRB3      30.24F
ST PAUL        SUNNY     24  16  71 SE7       30.27F WCI  16
CRYSTAL        SUNNY     31  16  54 S9        30.22F WCI  23
BLAINE         SUNNY     32  19  59 SW8       30.23F WCI  25
LAKEVILLE      SUNNY     32  21  64 S6        30.24F WCI  26
EDEN PRAIRIE   SUNNY     29  19  66 S6        30.22F WCI  23
SOUTH ST PAUL  SUNNY     26  15  63 SE6       30.25F WCI  19
LAKE ELMO      FAIR      27  18  69 S8        30.25F WCI  18
$$
MNZ001>005-007-008-013>017-022>024-027-028-152100-
   Northwest Minnesota

CITY           SKY/WX    TMP DP  RH WIND       PRES   REMARKS
BEMIDJI        SUNNY     29  17  59 SW8       30.05F WCI  22
HALLOCK        CLOUDY    12   7  79 S16       29.99F WCI  -4
ROSEAU         CLOUDY    19  10  68 S13       29.99F WCI   7
WARROAD        SUNNY     21  10  63 SW14      29.98F WCI   8
THIEF RVR FALL CLOUDY    17   9  70 S15       30.05F WCI   2
CROOKSTON      CLOUDY    16  10  79 S14       30.08F WCI   1
FOSSTON        SUNNY     21  12  68 S15       30.07F WCI   8
DETROIT LAKES  SUNNY     27  19  74 SW10      30.10F WCI  17
MOORHEAD       SUNNY     16   9  73 S9        30.12F WCI   4
PARK RAPIDS    SUNNY     27  15  61 SW12      30.09F WCI  17
MAHNOMEN       FAIR      21  15  76 S12       30.08F WCI   9
$$
MNZ006-009>011-018-025>026-152100-
   North Central Minnesota

CITY           SKY/WX    TMP DP  RH WIND       PRES   REMARKS
BAUDETTE       SUNNY     25   9  50 SW12      29.98F WCI  14
FLAG ISLAND    SUNNY     19   9  63 S10       29.93F WCI   8
INTL FALLS     SUNNY     29  12  49 SW13G18   30.01F WCI  19
WASKISH        SUNNY     27  16  63 W7        30.04F WCI  19
BIG FORK       SUNNY     28  14  54 S7        30.06F WCI  21
LONGVILLE      SUNNY     30  16  55 SW9       30.10F WCI  22
GRAND RAPIDS   SUNNY     33  13  43 S9        30.11F WCI  25
CRANE LAKE     SUNNY     28  10  47 S7        30.06F WCI  21
ORR            SUNNY     32  10  40 CALM      30.02F
COOK           SUNNY     30  12  47 SW12      30.06F WCI  21
WALKER         FAIR      31  16  55 SW10      30.08F WCI  22
$$
MNZ012-019>021-037-152100-
   Northeast Minnesota

CITY           SKY/WX    TMP DP  RH WIND       PRES   REMARKS
DULUTH         SUNNY     27  10  49 SW12      30.12F WCI  17
ELY            SUNNY     28  12  50 SW12G17   30.05F WCI  18
HIBBING        SUNNY     30  11  45 SW8       30.08F WCI  22
EVELETH        SUNNY     30   7  38 SW10      30.10F WCI  21
DULUTH HARBOR  SUNNY     28  12  50 CALM      30.17F
TWO HARBORS    SUNNY     28  16  59 S5        30.11F WCI  23
SILVER BAY     SUNNY     30  16  55 S7        30.08F WCI  23
GRAND MARAIS     N/A     32  26  78 SW25      30.09F WCI  19
G MARAIS ARPRT SUNNY     28  18  64 S8        30.02F WCI  20
$$
MNZ029>031-032-039>041-046>048-054>057-064-152100-
   West Central Minnesota

CITY           SKY/WX    TMP DP  RH WIND       PRES   REMARKS
FERGUS FALLS   SUNNY     21  16  79 S10       30.18F WCI  10
WHEATON        SUNNY     30  25  80 S7        30.14F WCI  23
MORRIS         SUNNY     23  18  80 SE12      30.14F WCI  12
ALEXANDRIA     SUNNY     25  17  72 SW8       30.14F WCI  16
ELBOW LAKE     FAIR      22  17  81 S7        30.13F HAZE    WCI  14
WADENA         SUNNY     28  18  64 SW8       30.11F WCI  20
GLENWOOD       SUNNY     27  19  74 S13       30.15F WCI  16
APPLETON       SUNNY     27  18  69 E3        30.17F
ORTONVILLE     SUNNY     25  18  74 CALM      30.14F
MADISON        SUNNY     36  23  60 SW5       30.15F
WILLMAR        FAIR      25  19  80 CALM      30.20F
$$
MNZ033>034-036-042>043-049>051-058-059-152100-
   Central Minnesota

CITY           SKY/WX    TMP DP  RH WIND       PRES   REMARKS
ST CLOUD       SUNNY     27  18  69 S10       30.18F WCI  17
SAUK CENTRE    FAIR      26  19  73 S6        30.16F WCI  20
PAYNESVILLE    SUNNY     27  18  67 S9        30.19F WCI  18
AITKIN         SUNNY     34   9  35 SW6       30.13F WCI  29
PINE RIVER     SUNNY     30  18  59 S6        30.14F WCI  24
BRAINERD       SUNNY     26  12  55 S7        30.14F WCI  18
STAPLES        SUNNY     28  14  54 SW9       30.13S WCI  20
LONG PRAIRIE   FAIR      28  18  64 S10       30.15F WCI  19
LITTLE FALLS   SUNNY     27  14  59 S6        30.17S WCI  20
LITCHFIELD     SUNNY     28  19  69 SW6       30.20F WCI  22
BUFFALO        SUNNY     29  17  61 S7        30.22F WCI  22
MAPLE LAKE     SUNNY     30  20  65 S8        30.21F WCI  23
HUTCHINSON     CLOUDY    29  21  73 S6        30.22F WCI  23
$$
MNZ037-044-045-052-053-152100-
   East Central Minnesota

CITY           SKY/WX    TMP DP  RH WIND       PRES   REMARKS
PRINCETON      SUNNY     30  18  59 S6        30.19F WCI  24
MORA           SUNNY     27  14  59 S5        30.22F WCI  21
CAMBRIDGE      SUNNY     28  18  64 S5        30.19F WCI  23
RUSH CITY      SUNNY     28  14  54 S6        30.22F WCI  22
MOOSE LAKE     SUNNY     27   9  46 S8        30.16S WCI  18
CLOQUET        SUNNY     27   7  43 S9        30.14F WCI  17
MCGREGOR       SUNNY     30  12  47 SW6       30.15F WCI  24
$$
MNZ071>073-080-081-089-090-097-098-152100-
   Southwest Minnesota

CITY           SKY/WX    TMP DP  RH WIND       PRES   REMARKS
MONTEVIDEO     SUNNY     32  23  69 S5        30.18F WCI  27
GRANITE FALLS  SUNNY     32  25  74 S8        30.19F WCI  25
CANBY          SUNNY     33  22  61 SW7G20    30.16F WCI  27
MARSHALL       SUNNY     33  22  63 S15       30.15S WCI  23
REDWOOD FALLS  SUNNY     32  22  66 S9        30.19F WCI  24
OLIVIA         SUNNY     30  23  74 S6        30.18F WCI  24
PIPESTONE      SUNNY     30  21  69 SW13      30.15F WCI  20
WINDOM         SUNNY     36  21  55 SW15      30.18F
WORTHINGTON    SUNNY     35  21  56 MISG        N/A
JACKSON        SUNNY     32  21  64 S8        30.21F WCI  25
TRACY          SUNNY     34  24  66 SW23      30.15F WCI  22
SLAYTON        SUNNY     32  22  67 SW13      30.19F WCI  22
$$
MNZ065>067-074>077-082>085-091>093-152100-
   South Central Minnesota

CITY           SKY/WX    TMP DP  RH WIND       PRES   REMARKS
MANKATO        SUNNY     32  22  66 S8        30.23F WCI  25
NEW ULM        SUNNY     34  21  60 S7        30.21F WCI  28
ST JAMES       SUNNY     34  25  69 S12       30.22F WCI  25
FAIRMONT       SUNNY     33  21  61 S13       30.23F WCI  24
GLENCOE        SUNNY     31  25  79 S5        30.21F WCI  26
FARIBAULT      SUNNY     34  23  64 S8        30.24F WCI  27
OWATONNA       SUNNY     30  21  69 S10       30.24F WCI  21
WASECA         SUNNY     32  27  80 S10       30.24F WCI  24
ALBERT LEA     SUNNY     30  18  59 S9        30.24F WCI  22
$$
MNZ078>079-086>088-094>096-152100-
   Southeast Minnesota

CITY           SKY/WX    TMP DP  RH WIND       PRES   REMARKS
ROCHESTER      SUNNY     23  18  81 S13       30.25F WCI  11
RED WING       SUNNY     25  14  63 SE6       30.27F WCI  18
STANTON        SUNNY     32  22  68 SW12      30.24F WCI  23
DODGE CENTER   SUNNY     25  19  80 S9        30.24F WCI  15
WINONA         SUNNY     28  18  64 CALM      30.32S
AUSTIN         CLOUDY   N/A N/A N/A S8        30.25F
PRESTON        CLOUDY    24  17  75 S8        30.27F WCI  15
$$
ABBREVIATIONS USED IN REMARKS
   TC - TEMPERATURES IN CELSIUS
  WCI - WIND CHILL INDEX
   HX - HEAT INDEX
  VSB - VISIBILITY
$$




USA.gov is the U.S. government's official web portal to all federal, state and local government web resources and services.